Location: Glenmont
(42.6048°N, 73.7696°W)
Time: 23:42:32
(UTC+00:00)

Cosmos 1151 Rocket - Pass Details

Date: 08 September 2024
Orbit: 586 x 610 km, 82.5° (Epoch: 14 October)

Event Time Altitude Azimuth Distance (km) Brightness Sun altitude
Rises 23:43:15 0° 357° (N) 2,847 6.7 -5.7°
Reaches altitude 10° 23:45:33 10° 4° (N) 1,936 5.7 -6.1°
Maximum altitude 23:49:40 46° 78° (ENE) 797 3.3 -6.9°
Drops below altitude 10° 23:53:44 10° 153° (SSE) 1,910 5.2 -7.6°
Sets 23:55:59 0° 159° (SSE) 2,803 6.1 -8.0°
